"2016-07-13 00:00:00",1804249,6.928,72.92,2.214,0.235,25.86,110.6061,26.45,27.5,13.31,0,111.4,12.98,27.30,34.9
"2016-07-13 00:00:30",1804250,6.204,77.76,4.335,0.39,25.83,110.6061,26.45,27.48,13.34,0,111.4,12.98,27.30,39.8
"2016-07-13 00:01:00",1804251,6.51,82.3,2.858,0.305,25.9,110.6061,26.45,27.49,13.35,0,111.4,12.99,27.30,44.3
"2016-07-13 00:01:30",1804252,6.46,77.21,1.056,0.158,25.85,110.6061,26.45,27.47,13.4,0,111.4,12.99,27.30,39.2
"2016-07-13 00:02:00",1804253,6.629,74.17,1.661,0.459,25.72,110.6061,26.45,27.46,13.39,0,111.4,12.99,27.30,36.2
"2016-07-13 00:02:30",1804254,6.304,70.39,1.476,0.165,25.66,110.6061,26.45,27.48,13.38,0,111.4,12.99,27.30,32.4
"2016-07-13 00:03:00",1804255,5.856,74.69,1.416,0.242,25.71,110.6061,26.45,27.47,13.39,0,111.4,12.99,27.30,36.7
"2016-07-13 00:03:30",1804256,5.302,75.28,6.373,0.249,25.74,110.6061,26.45,27.47,13.36,0,111.4,12.99,27.30,37.3
"2016-07-13 00:04:00",1804257,5.052,81,4.487,0.314,25.7,110.6061,26.45,27.47,13.29,0,111.4,12.99,27.30,43.0
"2016-07-13 00:04:30",1804258,4.902,84.4,2.42,0.288,25.6,110.6061,26.45,27.46,13.23,0,111.4,12.99,27.30,46.4
"2016-07-13 00:05:00",1804259,5.089,79.82,3.346,0.271,25.45,110.6061,26.45,27.47,13.21,0,111.4,12.99,27.30,41.8
"2016-07-13 00:05:30",1804260,5.55,78.74,4.655,0.289,25.48,110.6063,26.45,27.47,13.21,0,111.4,12.99,27.30,40.7
"2016-07-13 00:06:00",1804261,6.338,76.46,2.745,0.301,25.54,110.6097,26.46,27.49,13.28,0,111.4,12.99,27.31,38.5
"2016-07-13 00:06:30",1804262,6.733,72.12,2.395,0.267,25.38,110.6167,26.48,27.5,13.36,0,111.3,12.99,27.32,34.1
"2016-07-13 00:07:00",1804263,6.212,72.55,2.846,0.187,25.43,110.6249,26.5,27.5,13.38,0,111.4,12.99,27.34,34.6
"2016-07-13 00:07:30",1804264,5.377,73.35,4.656,0.347,25.45,110.6385,26.54,27.51,13.49,0,111.4,12.99,27.38,35.3
"2016-07-13 00:08:00",1804265,5.134,78.52,4.052,0.421,25.55,110.642,26.54,27.52,13.36,0,111.4,12.99,27.39,40.5
"2016-07-13 00:08:30",1804266,5.389,76.78,3.35,0.272,25.57,110.6491,26.56,27.53,13.27,0,111.4,12.99,27.41,38.8
"2016-07-13 00:09:00",1804267,5.516,76.46,2.538,0.173,25.53,110.6593,26.59,27.53,13.21,0,111.4,12.99,27.43,38.5
"2016-07-13 00:09:30",1804268,5.637,74.62,2.318,0.441,25.42,110.6605,26.59,27.56,13.25,0,111.4,12.99,27.44,36.6
"2016-07-13 00:10:00",1804269,6.304,76.62,3.623,0.508,25.37,110.6636,26.6,27.55,13.26,0,111.4,12.99,27.44,38.6
"2016-07-13 00:10:30",1804270,6.982,78.44,4.489,0.201,25.46,110.6667,26.61,27.56,13.4,0,111.4,12.99,27.45,40.4
"2016-07-13 00:11:00",1804271,6.564,70.61,2.449,0.276,25.5,110.6682,26.61,27.57,13.44,0,111.4,12.99,27.46,32.6
"2016-07-13 00:11:30",1804272,6.48,68.58,3.793,0.221,25.52,110.6742,26.63,27.59,13.36,0,111.4,12.99,27.47,30.6
"2016-07-13 00:12:00",1804273,6.834,79.48,5.897,0.236,25.69,110.6813,26.65,27.6,13.41,0,111.4,12.99,27.49,41.5
"2016-07-13 00:12:30",1804274,7.177,94,3.681,0.326,25.8,110.6895,26.67,27.61,13.26,0,111.4,12.98,27.51,56.0
"2016-07-13 00:13:00",1804275,6.721,88.6,2.933,0.211,25.82,110.6977,26.69,27.62,13.4,0,111.4,12.98,27.53,50.6
"2016-07-13 00:13:30",1804276,6.542,85.9,3.153,0.272,25.83,110.7033,26.7,27.61,13.3,0,111.3,12.98,27.55,47.9
"2016-07-13 00:14:00",1804277,6.79,80.6,2.636,0.254,25.84,110.7078,26.71,27.62,13.15,0,111.4,12.98,27.56,42.6
"2016-07-13 00:14:30",1804278,6.683,82.3,2.191,0.323,25.86,110.7096,26.72,27.63,13.2,0,111.3,12.98,27.56,44.3
"2016-07-13 00:15:00",1804279,6.396,82.3,3.925,0.407,25.85,110.7096,26.72,27.63,13.26,0,111.4,12.98,27.56,44.3
"2016-07-13 00:15:30",1804280,7.019,85,2.405,0.279,25.95,110.7107,26.72,27.65,13.27,0,111.3,12.98,27.57,47.0
"2016-07-13 00:16:00",1804281,6.99,81.3,4.483,0.313,25.89,110.7107,26.72,27.65,13.32,0,111.3,12.99,27.57,43.3
"2016-07-13 00:16:30",1804282,6.761,89.3,5.293,0.359,26.02,110.7104,26.72,27.64,13.3,0,111.4,12.99,27.57,51.3
"2016-07-13 00:17:00",1804283,6.903,96.3,4.694,0.402,26.09,110.7104,26.72,27.64,12.98,0,111.4,12.99,27.57,58.3
"2016-07-13 00:17:30",1804284,6.006,90.4,2.141,0.305,25.93,110.7107,26.72,27.65,13.06,0,111.4,12.99,27.57,52.4
"2016-07-13 00:18:00",1804285,6.544,96.5,3.674,0.376,25.99,110.7107,26.72,27.67,13.24,0,111.4,12.99,27.57,58.5
"2016-07-13 00:18:30",1804286,5.92,119.3,8.81,0.945,26.12,110.7107,26.72,27.66,12.86,0,111.3,12.99,27.57,81.3
"2016-07-13 00:19:00",1804287,4.592,115.6,13.64,0.797,26.09,110.7107,26.72,27.67,12.71,0,111.4,12.99,27.57,77.6
"2016-07-13 00:19:30",1804288,5.568,109.3,14.47,0.493,25.89,110.7107,26.72,27.68,12.9,0,111.4,13,27.57,71.3
"2016-07-13 00:20:00",1804289,5.705,98,2.631,0.34,25.85,110.7107,26.72,27.68,13.24,0,111.3,13,27.57,60.0
"2016-07-13 00:20:30",1804290,5.213,93,5.411,0.416,25.89,110.7107,26.72,27.68,13.22,0,111.3,13,27.57,55.0
"2016-07-13 00:21:00",1804291,5.342,90.7,2.129,0.416,25.97,110.7107,26.72,27.68,13.14,0,111.3,13,27.57,52.7
"2016-07-13 00:21:30",1804292,5.607,88.6,1.855,0.545,26.11,110.7107,26.72,27.68,12.96,0,111.3,13,27.57,50.6
"2016-07-13 00:22:00",1804293,5.595,86,5.592,0.248,26.15,110.7107,26.72,27.7,12.75,0,111.3,13,27.57,48.0
"2016-07-13 00:22:30",1804294,5.91,95.2,4.989,0.368,26.04,110.7107,26.72,27.69,12.88,0,111.3,13,27.57,57.2
"2016-07-13 00:23:00",1804295,4.79,95.2,9.22,0.387,25.99,110.7107,26.72,27.72,12.87,0,111.3,13,27.57,57.2
"2016-07-13 00:23:30",1804296,5.323,109.5,5.205,0.346,25.97,110.7107,26.72,27.7,12.79,0,111.3,13,27.57,71.5
"2016-07-13 00:24:00",1804297,5.182,103.8,11.87,0.781,25.94,110.7107,26.72,27.71,12.96,0,111.3,13,27.57,65.8
"2016-07-13 00:24:30",1804298,6.627,95.8,4.062,0.593,26.01,110.711,26.72,27.72,12.96,0,111.3,13,27.57,57.8
"2016-07-13 00:25:00",1804299,5.473,86.9,4.415,0.467,25.97,110.7116,26.72,27.72,12.97,0,111.3,13,27.57,48.9
"2016-07-13 00:25:30",1804300,5.748,92.9,4.926,0.355,25.93,110.7116,26.72,27.71,13.04,0,111.3,13,27.57,54.9
"2016-07-13 00:26:00",1804301,4.728,89.4,3.837,0.421,25.89,110.7135,26.73,27.73,12.95,0,111.3,13,27.57,51.4
"2016-07-13 00:26:30",1804302,5.3,83.2,5.123,0.433,25.89,110.715,26.73,27.72,12.97,0,111.3,13,27.58,45.2
"2016-07-13 00:27:00",1804303,5.525,73.21,8.35,0.444,25.87,110.7197,26.74,27.73,13.1,0,111.3,13,27.59,35.2
"2016-07-13 00:27:30",1804304,5.769,81.3,5.23,0.494,25.96,110.724,26.76,27.74,13.06,0,111.3,13,27.60,43.3
"2016-07-13 00:28:00",1804305,5.353,88.7,4.076,0.287,25.97,110.7293,26.77,27.73,12.97,0,111.3,13,27.61,50.7
"2016-07-13 00:28:30",1804306,4.926,94.2,4.858,0.252,25.93,110.7302,26.77,27.73,12.89,0,111.3,13,27.62,56.2
"2016-07-13 00:29:00",1804307,5.463,88.1,3.495,0.377,26.01,110.734,26.78,27.74,12.8,0,111.3,13,27.63,50.1
"2016-07-13 00:29:30",1804308,5.724,87.7,3.531,0.229,26.03,110.7337,26.78,27.73,12.78,0,111.3,12.99,27.63,49.7
"2016-07-13 00:30:00",1804309,5.81,93.3,1.802,0.278,26.05,110.7358,26.79,27.74,12.68,0,111.3,12.99,27.63,55.3
"2016-07-13 00:30:30",1804310,5.435,89.2,2.429,0.345,25.88,110.7374,26.79,27.73,12.86,0,111.3,12.99,27.64,51.2
"2016-07-13 00:31:00",1804311,6.056,87,3.079,0.241,25.89,110.7383,26.79,27.74,13.25,0,111.3,12.99,27.64,49.0
"2016-07-13 00:31:30",1804312,5.77,76.33,3.897,0.433,25.71,110.7411,26.8,27.76,13.62,0,111.3,12.99,27.64,38.3
"2016-07-13 00:32:00",1804313,6.361,86.3,4.089,0.418,25.81,110.7405,26.8,27.75,13.73,0,111.3,12.99,27.64,48.3
"2016-07-13 00:32:30",1804314,6.239,76.37,3.703,0.459,25.66,110.7452,26.81,27.74,13.93,0,111.3,12.99,27.66,38.4
"2016-07-13 00:33:00",1804315,6.233,78.41,1.348,0.248,25.77,110.7441,26.81,27.75,14.02,0,111.3,12.99,27.65,40.4
"2016-07-13 00:33:30",1804316,6.241,75.16,3.992,0.321,25.6,110.7336,26.78,27.76,14.15,0,111.3,12.99,27.63,37.2
"2016-07-13 00:34:00",1804317,7.089,76.71,1.962,0.333,25.7,110.7151,26.73,27.74,14.06,0,111.3,12.99,27.58,38.7
"2016-07-13 00:34:30",1804318,8.26,75.09,2.564,0.327,25.8,110.7143,26.73,27.75,13.74,0,111.3,13,27.58,37.1
"2016-07-13 00:35:00",1804319,8.69,79.27,3.353,0.326,25.98,110.7137,26.73,27.73,13.38,0,111.3,13,27.57,41.3
"2016-07-13 00:35:30",1804320,8.16,80.2,2.936,0.421,26.01,110.7115,26.72,27.71,13.17,0,111.3,13,27.57,42.2
"2016-07-13 00:36:00",1804321,7.682,87.1,3.455,0.743,25.94,110.6938,26.68,27.7,13.17,0,111.3,13,27.52,49.1
"2016-07-13 00:36:30",1804322,7.334,81.2,3.024,0.305,25.91,110.684,26.65,27.69,13.18,0,111.3,13,27.50,43.2
"2016-07-13 00:37:00",1804323,6.601,91.1,2.66,0.329,26.11,110.6806,26.64,27.68,13.02,0,111.3,13,27.49,53.1
"2016-07-13 00:37:30",1804324,6.72,90,2.597,0.369,26.08,110.6806,26.64,27.67,12.9,0,111.3,13,27.49,52.0
"2016-07-13 00:38:00",1804325,6.215,82.5,5.194,0.214,26.03,110.6806,26.64,27.67,12.91,0,111.3,13,27.49,44.5
"2016-07-13 00:38:30",1804326,6.229,75.94,5.21,0.476,25.99,110.6806,26.64,27.66,13.05,0,111.3,13,27.49,37.9
"2016-07-13 00:39:00",1804327,6.661,78.37,3.728,0.34,25.83,110.6806,26.64,27.64,13.11,0,111.3,13,27.49,40.4
"2016-07-13 00:39:30",1804328,7.205,88.7,2.498,0.291,25.87,110.6806,26.64,27.64,13.2,0,111.3,13.01,27.49,50.7
"2016-07-13 00:40:00",1804329,7.127,90.6,3.266,0.371,25.78,110.6806,26.64,27.65,13.14,0,111.3,13.01,27.49,52.6
"2016-07-13 00:40:30",1804330,6.017,78.57,9.1,0.578,25.83,110.6806,26.64,27.65,13.1,0,111.3,13.01,27.49,40.6
"2016-07-13 00:41:00",1804331,7.729,73.5,3.552,0.314,25.84,110.6806,26.64,27.65,13.12,0,111.3,13.01,27.49,35.5
"2016-07-13 00:41:30",1804332,6.838,81.3,4.632,0.375,25.92,110.6803,26.64,27.64,13.03,0,111.3,13.01,27.49,43.3
"2016-07-13 00:42:00",1804333,6.842,83.1,3.417,0.596,25.92,110.6792,26.64,27.64,13.05,0,111.3,13.01,27.48,45.1
"2016-07-13 00:42:30",1804334,6.226,75.33,1.809,0.304,25.92,110.6758,26.63,27.61,13.07,0,111.3,13.01,27.48,37.3
"2016-07-13 00:43:00",1804335,6.92,72.1,2.431,0.584,25.78,110.668,26.61,27.62,13.12,0,111.3,13.01,27.46,34.1
"2016-07-13 00:43:30",1804336,7.231,70.05,2.31,0.369,25.58,110.6643,26.6,27.61,13.43,0,111.3,13.01,27.45,32.1
"2016-07-13 00:44:00",1804337,6.819,73.25,2.906,0.366,25.77,110.6573,26.58,27.61,13.33,0,111.3,13.01,27.43,35.2
"2016-07-13 00:44:30",1804338,5.529,79.27,5.478,0.498,25.89,110.6508,26.57,27.61,13.12,0,111.3,13.01,27.41,41.3
"2016-07-13 00:45:00",1804339,5.538,84.7,4.088,0.387,25.84,110.6469,26.56,27.61,13.12,0,111.3,13.01,27.40,46.7
"2016-07-13 00:45:30",1804340,5.829,69.69,5.402,0.698,25.67,110.6469,26.56,27.6,13.21,0,111.3,13.01,27.40,31.7
"2016-07-13 00:46:00",1804341,6.075,70.69,4.052,0.895,25.63,110.6469,26.56,27.58,13.21,0,111.3,13.01,27.40,32.7
"2016-07-13 00:46:30",1804342,6.636,78.68,5.01,0.583,25.7,110.6469,26.56,27.6,13.24,0,111.3,13.01,27.40,40.7
"2016-07-13 00:47:00",1804343,5.947,85.6,4.158,0.449,25.82,110.6469,26.56,27.6,13.21,0,111.3,13,27.40,47.6
"2016-07-13 00:47:30",1804344,5.623,80.6,3.434,0.341,25.75,110.6469,26.56,27.58,13.17,0,111.3,13,27.40,42.6
"2016-07-13 00:48:00",1804345,6.985,75.35,3.505,0.605,25.57,110.6469,26.56,27.57,13.34,0,111.3,13,27.40,37.3
"2016-07-13 00:48:30",1804346,7.474,80.2,2.398,0.242,25.83,110.6418,26.54,27.58,13.29,0,111.3,13,27.39,42.2
"2016-07-13 00:49:00",1804347,6.729,84.2,2.257,0.444,25.86,110.6368,26.53,27.55,13.13,0,111.3,13,27.38,46.2
"2016-07-13 00:49:30",1804348,6.829,83.3,3.587,0.482,25.93,110.6303,26.51,27.55,13.08,0,111.3,13,27.36,45.3
"2016-07-13 00:50:00",1804349,6.305,73.96,2.538,0.283,25.83,110.6166,26.48,27.54,13.1,0,111.3,13,27.32,36.0
"2016-07-13 00:50:30",1804350,6.182,72.69,3.697,0.247,25.88,110.6148,26.47,27.55,13.1,0,111.3,13,27.32,34.7
"2016-07-13 00:51:00",1804351,5.767,73.59,4.174,0.45,25.75,110.6157,26.48,27.53,13.19,0,111.3,13,27.32,35.6
"2016-07-13 00:51:30",1804352,6.383,71.51,2.777,0.481,25.77,110.6172,26.48,27.52,13.24,0,111.3,13,27.33,33.5
"2016-07-13 00:52:00",1804353,7.41,65.72,2.117,0.354,25.51,110.6185,26.48,27.52,13.53,0,111.3,13,27.33,27.7
"2016-07-13 00:52:30",1804354,6.636,65.94,3.15,0.303,25.54,110.6222,26.49,27.51,13.73,0,111.3,13,27.34,27.9
"2016-07-13 00:53:00",1804355,6.11,82.2,7.508,0.352,25.79,110.6213,26.49,27.52,13.56,0,111.3,13.01,27.34,44.2
"2016-07-13 00:53:30",1804356,7.005,83.4,2.609,0.301,25.73,110.6217,26.49,27.51,13.31,0,111.3,13.01,27.34,45.4
"2016-07-13 00:54:00",1804357,6.413,77.33,3.498,0.434,25.59,110.6175,26.48,27.5,13.27,0,111.3,13.01,27.33,39.3
"2016-07-13 00:54:30",1804358,5.768,75.49,3.005,0.421,25.51,110.6168,26.48,27.5,13.3,0,111.3,13.01,27.32,37.5
"2016-07-13 00:55:00",1804359,5.784,75.81,2.714,0.437,25.58,110.6159,26.48,27.49,13.3,0,111.3,13.01,27.32,37.8
"2016-07-13 00:55:30",1804360,5.554,87.6,8.28,0.545,25.63,110.6137,26.47,27.49,13.37,0,111.3,13.01,27.32,49.6
"2016-07-13 00:56:00",1804361,6.156,83.7,6.725,0.59,25.63,110.6179,26.48,27.48,13.14,0,111.3,13.01,27.33,45.7
"2016-07-13 00:56:30",1804362,6.757,76.6,3.743,0.428,25.46,110.6198,26.49,27.48,13.47,0,111.3,13.01,27.33,38.6
"2016-07-13 00:57:00",1804363,6.495,83.2,3.103,0.331,25.6,110.6216,26.49,27.49,13.37,0,111.3,13.01,27.34,45.2
"2016-07-13 00:57:30",1804364,6.453,81.2,4.128,0.476,25.63,110.6215,26.49,27.49,13.27,0,111.3,13.01,27.34,43.2
"2016-07-13 00:58:00",1804365,6.758,77.52,3.962,0.209,25.54,110.6244,26.5,27.48,13.47,0,111.3,13.01,27.34,39.5
"2016-07-13 00:58:30",1804366,6.919,81.7,2.505,0.31,25.58,110.6242,26.5,27.49,13.47,0,111.3,13.01,27.34,43.7
"2016-07-13 00:59:00",1804367,7.2,83.8,2.458,0.322,25.69,110.6214,26.49,27.49,13.51,0,111.3,13.01,27.34,45.8
"2016-07-13 00:59:30",1804368,6.862,80.6,1.713,0.242,25.68,110.6163,26.48,27.48,13.51,0,111.3,13.01,27.32,42.6
"2016-07-13 01:00:00",1804369,6.79,82.8,2.754,0.231,25.66,110.6155,26.48,27.48,13.53,0,111.3,13.01,27.32,44.8
"2016-07-13 01:00:30",1804370,6.778,85,3.386,0.354,25.67,110.6085,26.46,27.47,13.52,0,111.3,13.01,27.30,47.0
"2016-07-13 01:01:00",1804371,6.526,84.5,1.258,0.146,25.71,110.6074,26.46,27.47,13.4,0,111.3,13.01,27.30,46.5
"2016-07-13 01:01:30",1804372,6.929,84.9,1.303,0.184,25.68,110.6081,26.46,27.47,13.41,0,111.3,13.01,27.30,46.9
"2016-07-13 01:02:00",1804373,7.088,84.6,3.42,0.193,25.69,110.6072,26.45,27.48,13.48,0,111.3,13.01,27.30,46.6
"2016-07-13 01:02:30",1804374,6.847,90.3,1.423,0.286,25.88,110.6078,26.46,27.47,13.21,0,111.3,13.02,27.30,52.3
"2016-07-13 01:03:00",1804375,6.78,88.4,2.735,0.186,25.82,110.6078,26.46,27.47,13.24,0,111.3,13.02,27.30,50.4
"2016-07-13 01:03:30",1804376,7.148,84.6,2.307,0.179,25.62,110.609,26.46,27.46,13.33,0,111.3,13.02,27.30,46.6
"2016-07-13 01:04:00",1804377,6.889,83.4,1.845,0.129,25.38,110.6099,26.46,27.47,13.51,0,111.3,13.02,27.31,45.4
"2016-07-13 01:04:30",1804378,6.796,83.1,1.935,0.233,25.41,110.6103,26.46,27.46,13.49,0,111.3,13.01,27.31,45.1
"2016-07-13 01:05:00",1804379,7.125,82.4,3.036,0.247,25.42,110.6124,26.47,27.46,13.53,0,111.3,13.01,27.31,44.4
"2016-07-13 01:05:30",1804380,7.042,85.8,2.909,0.261,25.58,110.6137,26.47,27.46,13.46,0,111.3,13.01,27.32,47.8
"2016-07-13 01:06:00",1804381,7.261,86.5,3.839,0.272,25.61,110.6134,26.47,27.46,13.41,0,111.3,13,27.32,48.5
"2016-07-13 01:06:30",1804382,6.954,82.5,1.663,0.166,25.48,110.6137,26.47,27.45,13.47,0,111.3,13,27.32,44.5
"2016-07-13 01:07:00",1804383,7.044,80.6,1.125,0.129,25.49,110.6149,26.47,27.46,13.55,0,111.3,13,27.32,42.6
"2016-07-13 01:07:30",1804384,7.27,81.8,2.07,0.187,25.4,110.6158,26.48,27.46,13.52,0,111.3,13,27.32,43.8
"2016-07-13 01:08:00",1804385,7.476,81.4,1.957,0.421,25.31,110.6162,26.48,27.46,13.51,0,111.3,13,27.32,43.4
"2016-07-13 01:08:30",1804386,7.324,81.7,2.107,0.198,25.23,110.6168,26.48,27.47,13.52,0,111.3,13,27.32,43.7
"2016-07-13 01:09:00",1804387,7.342,81.4,1.608,0.167,25.15,110.6168,26.48,27.47,13.55,0,111.3,13,27.32,43.4
"2016-07-13 01:09:30",1804388,7.224,82.5,1.041,0.169,25.15,110.6168,26.48,27.47,13.56,0,111.3,13.01,27.32,44.5
"2016-07-13 01:10:00",1804389,7.231,83.8,1.063,0.14,25.09,110.6168,26.48,27.45,13.48,0,111.3,13.01,27.32,45.8
"2016-07-13 01:10:30",1804390,7.49,82.9,1.098,0.123,25.03,110.6168,26.48,27.46,13.45,0,111.3,13.02,27.32,44.9
"2016-07-13 01:11:00",1804391,7.819,83,1.33,0.146,25.02,110.6168,26.48,27.47,13.39,0,111.3,13.02,27.32,45.0
"2016-07-13 01:11:30",1804392,8.1,80.6,1.239,0.231,24.97,110.6165,26.48,27.47,13.39,0,111.3,13.02,27.32,42.6
"2016-07-13 01:12:00",1804393,8.19,81,1.308,0.191,25,110.6168,26.48,27.46,13.33,0,111.3,13.02,27.32,43.0
"2016-07-13 01:12:30",1804394,8.43,81.2,1.45,0.25,24.98,110.6168,26.48,27.45,13.34,0,111.3,13.02,27.32,43.2
"2016-07-13 01:13:00",1804395,8.41,80.1,1.767,0.115,25.02,110.6165,26.48,27.44,13.29,0,111.3,13.02,27.32,42.1
"2016-07-13 01:13:30",1804396,8.37,80,1.323,0.19,25.02,110.6168,26.48,27.46,13.33,0,111.3,13.02,27.32,42.0
"2016-07-13 01:14:00",1804397,8.16,81.6,1.694,0.197,25.04,110.6168,26.48,27.45,13.23,0,111.3,13.02,27.32,43.6
"2016-07-13 01:14:30",1804398,8.27,82.2,1.451,0.336,25.02,110.6165,26.48,27.44,13.23,0,111.3,13.02,27.32,44.2
"2016-07-13 01:15:00",1804399,8.59,82.1,1.223,0.165,25.1,110.6168,26.48,27.43,13.23,0,111.3,13.02,27.32,44.1
"2016-07-13 01:15:30",1804400,8.04,82.4,1.287,0.309,25.15,110.6168,26.48,27.45,13.16,0,111.3,13.02,27.32,44.4
"2016-07-13 01:16:00",1804401,7.95,82.7,1.976,0.346,25.15,110.6168,26.48,27.45,13.14,0,111.3,13.02,27.32,44.7
"2016-07-13 01:16:30",1804402,8.01,83.7,2.181,0.391,25.13,110.6165,26.48,27.42,13.1,0,111.3,13.02,27.32,45.7
"2016-07-13 01:17:00",1804403,8.48,82.6,1.519,0.183,25.1,110.6162,26.48,27.43,13.05,0,111.3,13.02,27.32,44.6
"2016-07-13 01:17:30",1804404,8.45,84.7,1.406,0.29,25.17,110.6162,26.48,27.44,13.02,0,111.3,13.02,27.32,46.7
"2016-07-13 01:18:00",1804405,8.94,83.1,0.746,0.144,25.14,110.6168,26.48,27.44,12.99,0,111.3,13.02,27.32,45.1
"2016-07-13 01:18:30",1804406,9.1,83.8,0.937,0.118,25.21,110.6162,26.48,27.43,12.95,0,111.3,13.02,27.32,45.8
"2016-07-13 01:19:00",1804407,8.81,82,1.301,0.153,25.12,110.6155,26.48,27.44,13.03,0,111.3,13.01,27.32,44.0
"2016-07-13 01:19:30",1804408,9.02,81.7,1.602,0.191,25.13,110.6165,26.48,27.44,13.03,0,111.3,13.01,27.32,43.7
"2016-07-13 01:20:00",1804409,8.9,85.8,0.766,0.197,25.19,110.6162,26.48,27.45,12.96,0,111.3,13.02,27.32,47.8
"2016-07-13 01:20:30",1804410,8.58,87.4,1.442,0.282,25.17,110.6168,26.48,27.43,12.94,0,111.3,13.02,27.32,49.4
"2016-07-13 01:21:00",1804411,8.11,87.7,0.86,0.171,25.28,110.6162,26.48,27.43,12.89,0,111.3,13.02,27.32,49.7
"2016-07-13 01:21:30",1804412,8.01,88.9,0.89,0.191,25.27,110.6155,26.48,27.42,12.86,0,111.3,13.01,27.32,50.9
"2016-07-13 01:22:00",1804413,8.17,88.9,0.928,0.156,25.2,110.6158,26.48,27.44,12.88,0,111.3,13,27.32,50.9
"2016-07-13 01:22:30",1804414,8.05,88.7,1.96,0.119,25.28,110.6162,26.48,27.44,12.89,0,111.3,13,27.32,50.7
"2016-07-13 01:23:00",1804415,8.01,92.1,1.6,0.17,25.35,110.6146,26.47,27.43,12.82,0,111.3,13,27.32,54.1
"2016-07-13 01:23:30",1804416,8.07,89.1,2.068,0.217,25.26,110.6158,26.48,27.44,12.87,0,111.3,13,27.32,51.1
"2016-07-13 01:24:00",1804417,7.84,90.6,1.357,0.198,25.36,110.614,26.47,27.43,12.84,0,111.3,13,27.32,52.6
"2016-07-13 01:24:30",1804418,7.384,90.1,3.247,0.265,25.28,110.6137,26.47,27.45,12.85,0,111.3,13,27.32,52.1
"2016-07-13 01:25:00",1804419,7.478,90.9,3.26,0.193,25.3,110.6115,26.47,27.44,12.83,0,111.3,13,27.31,52.9
"2016-07-13 01:25:30",1804420,7.593,88.4,2.877,0.302,25.25,110.6142,26.47,27.45,12.84,0,111.3,13,27.32,50.4
"2016-07-13 01:26:00",1804421,8.06,88.7,1.237,0.2,25.2,110.6155,26.48,27.46,12.9,0,111.3,13,27.32,50.7
"2016-07-13 01:26:30",1804422,8.05,88.6,1.912,0.3,25.22,110.6285,26.51,27.47,12.9,0,111.3,13,27.35,50.6
"2016-07-13 01:27:00",1804423,8.2,86.2,1.214,0.112,25.11,110.6383,26.54,27.47,12.93,0,111.3,13.01,27.38,48.2
"2016-07-13 01:27:30",1804424,8.28,88.5,1.921,0.256,25.12,110.6414,26.54,27.46,12.96,0,111.3,13.01,27.39,50.5
"2016-07-13 01:28:00",1804425,8.33,87.5,2.314,0.394,25.11,110.6437,26.55,27.49,13.04,0,111.3,13.01,27.39,49.5
"2016-07-13 01:28:30",1804426,8.39,84.9,2.635,0.17,25.17,110.6432,26.55,27.48,13.04,0,111.3,13.01,27.39,46.9
"2016-07-13 01:29:00",1804427,8.38,86.2,1.058,0.097,25.2,110.6435,26.55,27.49,12.94,0,111.3,13.01,27.39,48.2
"2016-07-13 01:29:30",1804428,8.26,87.2,1.553,0.222,25.28,110.6431,26.55,27.49,12.92,0,111.3,13.01,27.39,49.2
"2016-07-13 01:30:00",1804429,8.03,88.2,1.213,0.259,25.28,110.6415,26.54,27.49,12.93,0,111.3,13.02,27.39,50.2
"2016-07-13 01:30:30",1804430,7.861,87.9,1.558,0.109,25.3,110.6413,26.54,27.49,12.94,0,111.3,13.01,27.39,49.9
"2016-07-13 01:31:00",1804431,7.928,87.5,1.587,0.233,25.25,110.6433,26.55,27.49,12.95,0,111.3,13.01,27.39,49.5
"2016-07-13 01:31:30",1804432,7.959,88.3,1.086,0.115,25.29,110.6413,26.54,27.5,12.96,0,111.3,13.01,27.39,50.3
"2016-07-13 01:32:00",1804433,7.858,86.9,1.134,0.189,25.39,110.6405,26.54,27.5,12.93,0,111.3,13.02,27.39,48.9
"2016-07-13 01:32:30",1804434,7.907,87.2,1.498,0.234,25.44,110.64,26.54,27.5,12.9,0,111.3,13.02,27.38,49.2
"2016-07-13 01:33:00",1804435,7.984,86.5,0.862,0.114,25.41,110.6379,26.53,27.49,12.88,0,111.3,13.01,27.38,48.5
"2016-07-13 01:33:30",1804436,8.22,86.5,1.022,0.141,25.43,110.6367,26.53,27.48,12.88,0,111.3,13.02,27.38,48.5
"2016-07-13 01:34:00",1804437,8.17,85.1,0.669,0.075,25.36,110.6333,26.52,27.49,12.87,0,111.3,13.01,27.37,47.1
"2016-07-13 01:34:30",1804438,7.924,85.3,0.762,0.123,25.45,110.6246,26.5,27.5,12.87,0,111.3,13.02,27.34,47.3
"2016-07-13 01:35:00",1804439,7.928,85.5,0.682,0.123,25.48,110.6177,26.48,27.5,12.86,0,111.3,13.02,27.33,47.5
"2016-07-13 01:35:30",1804440,7.888,85.4,1.102,0.17,25.37,110.613,26.47,27.49,12.87,0,111.3,13.01,27.31,47.4
"2016-07-13 01:36:00",1804441,7.902,85.9,1.219,0.22,25.43,110.6115,26.47,27.49,12.88,0,111.3,13.02,27.31,47.9
"2016-07-13 01:36:30",1804442,7.919,85.5,0.924,0.101,25.39,110.6109,26.46,27.46,12.91,0,111.3,13.02,27.31,47.5
"2016-07-13 01:37:00",1804443,7.985,85.3,1.027,0.149,25.33,110.6096,26.46,27.47,12.89,0,111.3,13.02,27.31,47.3
"2016-07-13 01:37:30",1804444,7.989,85,0.757,0.135,25.32,110.6096,26.46,27.47,12.87,0,111.3,13.02,27.31,47.0
"2016-07-13 01:38:00",1804445,7.502,87,0.87,0.147,25.34,110.6127,26.47,27.46,12.87,0,111.3,13.02,27.31,49.0
"2016-07-13 01:38:30",1804446,7.443,86.6,0.949,0.103,25.36,110.6127,26.47,27.46,12.88,0,111.3,13.02,27.31,48.6
"2016-07-13 01:39:00",1804447,7.31,86.3,0.741,0.176,25.37,110.6124,26.47,27.44,12.89,0,111.3,13.01,27.31,48.3
"2016-07-13 01:39:30",1804448,7.87,83.9,1.273,0.277,25.26,110.6115,26.47,27.46,12.87,0,111.3,13.01,27.31,45.9
"2016-07-13 01:40:00",1804449,8.12,82.6,0.804,0.087,25.2,110.614,26.47,27.45,12.87,0,111.3,13.01,27.32,44.6
"2016-07-13 01:40:30",1804450,8.34,81.5,0.749,0.108,25.08,110.6127,26.47,27.45,12.92,0,111.3,13.01,27.31,43.5
"2016-07-13 01:41:00",1804451,8.38,83,0.859,0.212,25.17,110.6127,26.47,27.45,12.91,0,111.3,13,27.31,45.0
"2016-07-13 01:41:30",1804452,8.57,83.1,0.759,0.108,25.17,110.6134,26.47,27.44,12.88,0,111.3,13.01,27.32,45.1
"2016-07-13 01:42:00",1804453,8.59,83.7,0.561,0.127,25.24,110.6152,26.48,27.43,12.9,0,111.3,13,27.32,45.7
"2016-07-13 01:42:30",1804454,8.44,84.3,0.555,0.115,25.22,110.6125,26.47,27.43,12.89,0,111.3,13,27.31,46.3
"2016-07-13 01:43:00",1804455,8.64,83.1,0.42,0.133,25.19,110.6108,26.46,27.44,12.9,0,111.3,13,27.31,45.1
"2016-07-13 01:43:30",1804456,8.43,83.2,0.566,0.075,25.21,110.6051,26.45,27.42,12.89,0,111.3,13,27.29,45.2
"2016-07-13 01:44:00",1804457,8.31,84.2,0.705,0.095,25.29,110.5968,26.43,27.44,12.9,0,111.3,13.01,27.27,46.2
"2016-07-13 01:44:30",1804458,8.12,84.8,0.46,0.072,25.31,110.6008,26.44,27.42,12.89,0,111.3,13.01,27.28,46.8
"2016-07-13 01:45:00",1804459,7.928,85.9,1.091,0.287,25.31,110.5956,26.43,27.41,12.93,0,111.3,13.01,27.27,47.9
"2016-07-13 01:45:30",1804460,7.738,86.2,1.652,0.418,25.33,110.5944,26.42,27.42,12.91,0,111.3,13.02,27.27,48.2
"2016-07-13 01:46:00",1804461,8.09,85,0.507,0.077,25.24,110.5877,26.4,27.41,12.94,0,111.3,13.02,27.25,47.0
"2016-07-13 01:46:30",1804462,8.09,84.6,1.02,0.141,25.26,110.5875,26.4,27.4,12.96,0,111.3,13.02,27.25,46.6
"2016-07-13 01:47:00",1804463,8.23,82,1.117,0.14,25.19,110.5824,26.39,27.41,12.92,0,111.3,13.02,27.24,44.0
"2016-07-13 01:47:30",1804464,8.29,81.5,0.764,0.091,25.17,110.5818,26.39,27.39,12.92,0,111.3,13.02,27.23,43.5
"2016-07-13 01:48:00",1804465,8.3,79.87,0.721,0.091,25.17,110.5818,26.39,27.39,12.92,0,111.3,13.02,27.23,41.9
"2016-07-13 01:48:30",1804466,8.14,78.46,1.29,0.153,25.16,110.58,26.39,27.39,12.92,0,111.3,13.02,27.23,40.5
"2016-07-13 01:49:00",1804467,8.25,79.95,0.799,0.208,25.22,110.5806,26.39,27.39,12.93,0,111.3,13.02,27.23,41.9